This is the latest recevied weather packets stored in our database for station/object PACCTY. If no packets are shown the sender has not sent any weather packets the latest 10 day(s).
| Time | Temp. | Humidity | Pressure | Rain* | Wind** | Luminosity | Snow |
|---|---|---|---|---|---|---|---|
| 1777663210 | 14.44° C | 81% | 1016.6 hPa | 0 mm | - | - | - |
| 1777662910 | 13.89° C | 82% | 1016.7 hPa | 0 mm | - | - | - |
| 1777662611 | 13.89° C | 80% | 1016.8 hPa | 0 mm | - | - | - |
| 1777662310 | 13.89° C | 81% | 1016.8 hPa | 0 mm | - | - | - |
| 1777662010 | 13.89° C | 81% | 1016.8 hPa | 0 mm | - | - | - |
| 1777661710 | 13.89° C | 82% | 1016.8 hPa | 0 mm | - | - | - |
| 1777661410 | 13.89° C | 82% | 1016.8 hPa | 0 mm | - | - | - |
| 1777661111 | 13.89° C | 82% | 1016.7 hPa | 0 mm | - | - | - |
| 1777660810 | 13.89° C | 83% | 1016.7 hPa | 0 mm | - | - | - |
| 1777660509 | 13.89° C | 83% | 1016.7 hPa | 0 mm | - | - | - |
| 1777660210 | 13.33° C | 83% | 1016.7 hPa | 0 mm | - | - | - |
| 1777659911 | 13.33° C | 83% | 1016.8 hPa | 0 mm | - | - | - |
| 1777659610 | 13.33° C | 85% | 1016.8 hPa | 0 mm | - | - | - |
| 1777659010 | 13.33° C | 83% | 1016.8 hPa | 0 mm | - | - | - |
| 1777658709 | 13.33° C | 84% | 1016.8 hPa | 0 mm | - | - | - |
| 1777658411 | 13.33° C | 84% | 1016.7 hPa | 0 mm | - | - | - |
| 1777658110 | 13.33° C | 83% | 1016.7 hPa | 0 mm | - | - | - |
| 1777656910 | 13.33° C | 84% | 1016.7 hPa | 0 mm | - | - | - |
| 1777656609 | 13.89° C | 84% | 1016.7 hPa | 0 mm | - | - | - |
| 1777656010 | 13.33° C | 85% | 1016.5 hPa | 0 mm | - | - | - |
| 1777655710 | 13.33° C | 86% | 1016.4 hPa | 0 mm | - | - | - |
| 1777654810 | 13.33° C | 85% | 1016.3 hPa | 0 mm | - | - | - |
| 1777654510 | 13.33° C | 84% | 1016.3 hPa | 0 mm | - | - | - |
| 1777653611 | 13.33° C | 87% | 1016.3 hPa | 0 mm | - | - | - |
| 1777652712 | 13.33° C | 87% | 1016.5 hPa | 0 mm | - | - | - |
* Rain latest hour (hover to see other rain measurements)
** Current wind speed in m/s (hover to see current wind gust speed)